TimeEST,TemperatureF,Dew PointF,Humidity,Sea Level PressureIn,VisibilityMPH,Wind Direction,Wind SpeedMPH,Gust SpeedMPH,PrecipitationIn,Events,Conditions,WindDirDegrees,DateUTC
12:11 AM,48.2,48.2,100,29.97,5.0,ENE,3.5,-,N/A,,Mostly Cloudy,60,2013-01-14 05:11:00
12:32 AM,48.2,48.2,100,30.01,5.0,NNW,3.5,-,N/A,,Mostly Cloudy,340,2013-01-14 05:32:00
12:53 AM,50.0,50.0,100,30.02,5.0,ENE,10.4,-,N/A,,Overcast,60,2013-01-14 05:53:00
1:14 AM,48.2,48.2,100,29.99,5.0,WSW,6.9,-,N/A,,Mostly Cloudy,240,2013-01-14 06:14:00
1:36 AM,48.2,48.2,100,29.98,3.0,WSW,4.6,-,N/A,,Unknown,240,2013-01-14 06:36:00
1:57 AM,50.0,50.0,100,29.99,5.0,South,4.6,-,N/A,,Scattered Clouds,170,2013-01-14 06:57:00
2:18 AM,50.0,50.0,100,30.00,5.0,Calm,Calm,-,N/A,,Clear,0,2013-01-14 07:18:00
2:39 AM,48.2,48.2,100,30.00,3.0,Calm,Calm,-,N/A,,Unknown,0,2013-01-14 07:39:00
2:40 AM,48.2,48.2,100,30.01,3.0,Calm,Calm,-,N/A,,Unknown,0,2013-01-14 07:40:00
3:01 AM,48.2,48.2,100,30.00,2.5,North,3.5,-,N/A,,Unknown,360,2013-01-14 08:01:00
3:22 AM,50.0,50.0,100,30.01,4.0,Calm,Calm,-,N/A,,Mostly Cloudy,0,2013-01-14 08:22:00
3:43 AM,48.2,48.2,100,30.01,3.0,Calm,Calm,-,N/A,,Overcast,0,2013-01-14 08:43:00
4:05 AM,48.2,48.2,100,30.01,1.8,Calm,Calm,-,N/A,,Overcast,0,2013-01-14 09:05:00
4:26 AM,48.2,48.2,100,30.01,2.0,NNW,3.5,-,N/A,,Overcast,330,2013-01-14 09:26:00
4:47 AM,51.8,51.8,100,30.03,10.0,NW,11.5,23.0,N/A,,Mostly Cloudy,320,2013-01-14 09:47:00
5:08 AM,53.6,50.0,88,30.04,10.0,NNW,10.4,23.0,N/A,,Overcast,330,2013-01-14 10:08:00
5:30 AM,51.8,46.4,82,30.08,10.0,NW,11.5,28.8,N/A,,Overcast,320,2013-01-14 10:30:00
5:51 AM,50.0,44.6,82,30.10,10.0,North,10.4,23.0,N/A,,Overcast,360,2013-01-14 10:51:00
6:12 AM,50.0,44.6,82,30.12,10.0,NNW,10.4,-,N/A,,Overcast,340,2013-01-14 11:12:00
6:33 AM,50.0,42.8,76,30.15,10.0,NNW,6.9,17.3,N/A,,Overcast,330,2013-01-14 11:33:00
6:55 AM,50.0,42.8,76,30.16,10.0,ENE,4.6,-,N/A,,Overcast,60,2013-01-14 11:55:00
7:16 AM,48.2,42.8,82,30.18,10.0,Calm,Calm,-,N/A,,Overcast,0,2013-01-14 12:16:00
7:37 AM,50.0,42.8,76,30.19,10.0,Calm,Calm,-,N/A,,Overcast,0,2013-01-14 12:37:00
7:58 AM,50.0,41.0,71,30.20,10.0,NNW,4.6,-,N/A,,Overcast,330,2013-01-14 12:58:00
8:20 AM,48.2,41.0,76,30.22,10.0,WNW,11.5,20.7,N/A,,Mostly Cloudy,300,2013-01-14 13:20:00
8:41 AM,48.2,37.4,66,30.23,10.0,WNW,5.8,-,N/A,,Mostly Cloudy,290,2013-01-14 13:41:00
9:02 AM,50.0,37.4,62,30.26,10.0,WNW,8.1,-,N/A,,Overcast,290,2013-01-14 14:02:00
9:23 AM,46.4,37.4,71,30.27,10.0,WNW,9.2,23.0,N/A,,Mostly Cloudy,300,2013-01-14 14:23:00
9:45 AM,46.4,37.4,71,30.28,10.0,NW,8.1,-,N/A,,Overcast,320,2013-01-14 14:45:00
10:06 AM,46.4,37.4,71,30.28,10.0,North,8.1,-,N/A,,Overcast,360,2013-01-14 15:06:00
10:27 AM,44.6,37.4,76,30.30,10.0,NW,5.8,9.2,N/A,,Overcast,320,2013-01-14 15:27:00
10:48 AM,44.6,37.4,76,30.28,10.0,WNW,6.9,-,N/A,,Mostly Cloudy,300,2013-01-14 15:48:00
11:10 AM,44.6,37.4,76,30.27,10.0,NNW,6.9,17.3,N/A,,Mostly Cloudy,330,2013-01-14 16:10:00
11:31 AM,44.6,37.4,76,30.28,10.0,West,9.2,-,N/A,,Mostly Cloudy,270,2013-01-14 16:31:00
12:13 PM,44.6,35.6,71,30.26,10.0,NW,9.2,16.1,N/A,,Mostly Cloudy,310,2013-01-14 17:13:00
12:34 PM,44.6,35.6,71,30.26,10.0,WNW,3.5,-,N/A,,Mostly Cloudy,290,2013-01-14 17:34:00
12:56 PM,44.6,33.8,66,30.24,10.0,NNW,9.2,-,N/A,,Scattered Clouds,340,2013-01-14 17:56:00
1:17 PM,44.6,33.8,66,30.25,10.0,NNW,4.6,-,N/A,,Scattered Clouds,330,2013-01-14 18:17:00
1:38 PM,44.6,33.8,66,30.25,10.0,NNW,6.9,-,N/A,,Scattered Clouds,340,2013-01-14 18:38:00
1:59 PM,46.4,33.8,62,30.25,10.0,North,4.6,-,N/A,,Scattered Clouds,350,2013-01-14 18:59:00
2:21 PM,46.4,33.8,62,30.24,10.0,North,5.8,-,N/A,,Mostly Cloudy,360,2013-01-14 19:21:00
2:42 PM,46.4,33.8,62,30.23,10.0,NNW,8.1,-,N/A,,Overcast,340,2013-01-14 19:42:00
3:03 PM,44.6,32.0,61,30.25,10.0,NNW,8.1,-,N/A,,Scattered Clouds,330,2013-01-14 20:03:00
3:24 PM,44.6,32.0,61,30.22,10.0,Calm,Calm,-,N/A,,Clear,0,2013-01-14 20:24:00
3:46 PM,44.6,32.0,61,30.23,10.0,North,4.6,-,N/A,,Clear,10,2013-01-14 20:46:00
4:07 PM,44.6,32.0,61,30.24,10.0,North,5.8,-,N/A,,Clear,350,2013-01-14 21:07:00
4:28 PM,44.6,32.0,61,30.26,10.0,NNW,6.9,-,N/A,,Scattered Clouds,340,2013-01-14 21:28:00
4:49 PM,44.6,32.0,61,30.26,10.0,NNW,5.8,-,N/A,,Overcast,340,2013-01-14 21:49:00
5:32 PM,44.6,32.0,61,30.29,10.0,North,6.9,16.1,N/A,,Overcast,350,2013-01-14 22:32:00
5:53 PM,44.6,32.0,61,30.32,10.0,NNW,9.2,-,N/A,,Overcast,340,2013-01-14 22:53:00
6:14 PM,42.8,32.0,66,30.34,10.0,NNW,9.2,-,N/A,,Overcast,330,2013-01-14 23:14:00
6:36 PM,42.8,32.0,66,30.33,10.0,NNW,8.1,-,N/A,,Overcast,340,2013-01-14 23:36:00
6:57 PM,42.8,32.0,66,30.33,10.0,NNW,6.9,-,N/A,,Overcast,330,2013-01-14 23:57:00
7:18 PM,41.0,33.8,76,30.34,7.0,Calm,Calm,-,N/A,,Overcast,0,2013-01-15 00:18:00
7:39 PM,41.0,35.6,81,30.35,7.0,Calm,Calm,-,N/A,,Overcast,0,2013-01-15 00:39:00
8:01 PM,39.2,37.4,93,30.36,7.0,Calm,Calm,-,N/A,,Overcast,0,2013-01-15 01:01:00
8:22 PM,39.2,37.4,93,30.35,7.0,Calm,Calm,-,N/A,,Overcast,0,2013-01-15 01:22:00
8:43 PM,39.2,37.4,93,30.36,10.0,Calm,Calm,-,N/A,,Scattered Clouds,0,2013-01-15 01:43:00
9:04 PM,37.4,37.4,100,30.36,7.0,Calm,Calm,-,N/A,,Clear,0,2013-01-15 02:04:00
9:25 PM,37.4,37.4,100,30.36,7.0,Calm,Calm,-,N/A,,Scattered Clouds,0,2013-01-15 02:25:00
9:47 PM,37.4,37.4,100,30.36,5.0,Calm,Calm,-,N/A,,Mostly Cloudy,0,2013-01-15 02:47:00
10:08 PM,37.4,37.4,100,30.35,4.0,ESE,3.5,-,N/A,,Overcast,110,2013-01-15 03:08:00
10:29 PM,35.6,35.6,100,30.34,4.0,ESE,3.5,-,N/A,,Overcast,120,2013-01-15 03:29:00
10:51 PM,33.8,33.8,100,30.32,5.0,Calm,Calm,-,N/A,,Overcast,0,2013-01-15 03:51:00
11:12 PM,33.8,33.8,100,30.32,5.0,Calm,Calm,-,N/A,,Overcast,0,2013-01-15 04:12:00
11:33 PM,35.6,35.6,100,30.32,5.0,Calm,Calm,-,N/A,,Overcast,0,2013-01-15 04:33:00
11:54 PM,33.8,33.8,100,30.30,5.0,Calm,Calm,-,N/A,,Overcast,0,2013-01-15 04:54:00